Theta_e
315 314 315 316 318 319 320 320 320 321 321 322 322 323 324 325 324 325 327 329 329 328 327 326 324 324 325 324 324 325 325 327 326 327 328 329 329 328 327 327 327 328 327 328 327 324 327 329 328 327 324 324 324 325 324 323 320 320 318 316 318 318 319 320 320 318 317 317 320 319 319 320 315 314 314 316 317 316 315 315 314 315 316 315 314
308 308 309 312 315 316 318 319 317 319 319 320 321 322 323 324 324 326 327 327 329 330 329 328 328 328 326 325 325 326 325 325 325 326 328 329 329 329 329 329 329 327 326 327 327 327 326 326 327 327 324 322 323 322 319 316 317 317 317 319 317 318 319 318 318 319 316 313 311 312 314 316 314 313 312 316 316 316 314 314 313 313 314 313 313
307 307 308 309 311 313 315 318 319 321 322 320 322 322 322 322 324 325 326 326 328 330 330 328 329 329 329 328 328 326 327 329 329 329 329 330 330 329 329 329 329 329 329 327 326 326 327 327 327 326 322 323 322 322 321 321 320 319 318 319 319 316 317 316 318 318 314 314 313 311 309 308 312 314 312 314 314 314 313 313 312 313 311 312 311
304 304 304 305 307 310 312 316 318 320 321 320 320 321 322 321 323 323 324 326 327 328 327 330 330 329 329 328 328 327 324 324 327 327 329 329 329 329 330 330 330 331 330 328 327 328 327 327 327 323 321 323 324 323 322 322 320 319 318 318 319 317 317 317 314 316 316 316 309 308 308 306 305 309 308 311 312 312 311 311 311 310 310 310 308
301 302 302 301 303 306 310 314 317 318 319 321 320 321 322 322 323 323 324 325 326 326 326 327 325 324 322 321 322 322 321 323 324 324 326 327 328 327 329 328 329 330 330 329 327 327 326 327 326 325 324 323 323 322 321 321 321 320 319 318 318 318 315 316 316 315 315 318 314 310 307 305 305 307 308 306 311 308 309 311 311 309 308 306 304
298 300 301 301 302 304 307 310 313 316 318 320 322 322 322 323 323 323 323 324 325 326 326 326 325 325 323 323 321 322 322 320 322 323 322 324 327 329 328 328 328 328 328 328 327 325 326 326 325 325 324 322 322 321 320 318 318 319 319 319 318 318 317 313 312 312 313 315 315 314 312 307 305 307 305 303 307 306 309 311 310 308 308 303 301
293 294 295 296 299 301 304 307 311 314 317 320 320 321 322 323 322 322 323 323 324 325 325 325 326 326 325 326 326 325 324 324 326 327 327 327 327 326 326 325 327 327 325 326 326 324 325 324 323 322 322 321 319 320 318 317 316 316 315 315 315 315 314 311 310 311 313 312 311 310 310 308 309 306 301 302 297 303 304 306 304 307 303 299 299
295 295 295 295 297 299 301 305 309 312 315 317 318 319 320 321 322 322 323 322 324 324 324 325 326 326 326 326 326 327 327 326 325 326 327 325 324 323 321 320 322 324 323 324 325 324 323 322 322 321 320 319 318 319 317 315 314 313 313 314 313 312 311 312 310 311 311 309 309 307 306 305 305 306 305 300 296 294 295 301 303 301 297 297 298
295 295 295 295 295 297 300 302 307 310 312 314 316 318 320 321 320 321 322 322 322 323 323 324 325 326 326 326 325 326 327 326 322 320 322 322 323 318 319 318 318 319 322 322 321 320 319 320 319 318 318 317 317 316 315 314 314 312 312 314 314 313 313 311 311 309 310 308 307 304 304 302 304 305 301 298 296 294 293 293 293 296 295 296 297
293 294 295 295 295 296 298 300 302 307 309 311 313 315 316 318 318 319 320 321 321 322 322 324 325 324 325 325 325 324 323 318 318 316 319 320 322 319 317 316 316 315 316 316 316 316 316 315 316 316 315 314 312 313 311 310 308 307 306 307 308 308 308 310 308 307 306 304 304 303 301 300 301 300 298 295 296 297 293 292 293 290 290 293 296
292 292 292 293 293 294 296 298 301 302 305 307 310 312 314 316 317 317 319 320 320 321 322 323 324 324 325 325 324 323 321 318 316 316 317 318 319 316 315 314 315 314 311 310 310 310 310 310 310 309 309 308 308 308 307 307 305 304 303 303 303 304 303 302 301 300 301 301 300 300 299 299 298 296 295 295 294 292 291 291 291 292 291 291 296
291 291 292 293 293 294 294 296 298 301 302 304 308 309 311 314 316 316 317 318 318 320 321 322 323 324 325 324 324 324 321 319 318 317 317 317 317 314 313 311 310 311 310 309 308 308 307 306 305 305 305 305 306 306 305 304 303 303 303 302 301 300 300 299 298 297 297 297 298 299 299 299 298 296 296 295 295 293 292 290 290 291 291 292 294
289 291 292 293 294 294 295 296 297 299 302 304 306 308 310 312 314 316 316 316 317 319 320 321 322 323 323 323 323 323 321 321 321 320 319 319 317 313 310 310 308 308 308 308 307 306 306 305 305 304 303 303 303 304 303 303 302 301 300 299 298 298 297 297 296 296 296 297 296 295 295 296 295 296 296 295 295 294 293 289 290 291 288 289 292
290 291 292 293 294 295 296 296 297 299 301 303 304 305 307 310 312 315 316 315 317 318 319 320 321 322 323 323 323 321 320 321 322 321 319 320 318 314 312 312 310 310 307 307 305 303 303 302 301 301 301 301 302 302 302 302 300 298 297 296 296 295 295 295 294 293 293 293 294 293 292 291 292 293 294 294 293 292 290 290 288 289 289 288 290
291 292 293 294 295 296 297 297 297 298 300 301 301 302 304 307 310 312 315 314 315 317 318 320 320 322 322 323 323 321 321 320 322 322 320 319 317 315 314 313 312 310 308 304 302 301 300 300 300 300 300 300 300 300 299 299 297 295 294 294 294 293 292 292 291 291 290 291 291 291 290 289 289 291 292 291 292 291 291 290 289 286 287 288 287
293 293 293 294 295 294 295 296 297 296 296 296 298 300 301 305 308 311 314 314 314 315 317 319 320 321 321 321 322 320 319 320 320 319 320 319 317 316 314 313 311 307 303 300 300 300 298 298 298 298 298 299 298 298 297 297 296 295 293 293 291 291 291 290 289 289 289 289 289 290 290 289 288 289 289 290 290 290 290 290 289 288 286 283 286
293 293 294 294 293 292 294 295 294 296 297 298 298 299 301 303 305 308 311 312 313 313 316 318 319 319 319 321 321 320 319 319 319 318 318 317 316 315 312 309 305 302 300 299 298 298 297 297 296 296 296 296 295 296 295 294 294 293 292 291 289 289 289 288 289 289 289 289 289 289 289 288 288 288 289 289 289 289 289 289 290 288 287 285 283
292 292 293 293 293 293 293 293 295 296 299 299 299 300 301 304 305 307 309 309 310 312 314 316 317 317 318 318 319 320 320 319 319 317 315 313 310 309 307 303 302 300 299 297 297 295 295 294 295 294 293 294 294 293 293 291 291 291 289 289 288 289 288 288 288 288 288 288 287 287 288 287 287 287 287 287 287 288 287 288 288 288 288 286 285
292 292 292 292 292 293 293 292 294 296 299 300 300 301 302 304 306 307 308 309 309 311 312 314 316 316 317 317 318 318 318 318 316 314 312 310 307 305 304 303 299 297 296 295 295 293 292 292 292 291 291 291 291 291 290 290 290 289 288 288 287 289 288 287 287 288 287 288 287 286 287 287 287 287 287 287 287 287 287 287 287 288 287 287 285
292 292 292 292 291 291 291 292 295 296 298 300 302 302 302 304 305 306 307 308 308 308 309 311 313 314 315 315 315 316 316 315 312 311 310 308 305 303 301 298 297 296 296 295 293 292 291 291 290 290 290 289 289 289 289 289 289 289 288 288 288 288 287 287 286 287 287 287 287 286 286 286 286 287 286 286 286 286 286 286 286 286 286 286 286
292 291 291 291 291 290 290 291 293 295 299 302 303 303 303 304 305 306 306 307 307 307 308 309 310 311 310 312 311 311 310 310 309 309 308 306 303 301 299 298 295 294 293 292 292 291 291 290 290 290 289 289 288 288 288 288 288 288 288 288 287 287 287 286 286 286 286 286 286 285 285 285 285 285 286 286 285 285 285 285 285 285 285 285 284
291 290 290 290 290 290 289 288 288 291 297 301 302 303 303 304 305 305 306 306 306 306 307 308 308 309 308 309 307 307 307 306 306 305 303 301 299 298 295 293 294 292 292 292 291 290 290 289 289 288 288 288 287 287 287 288 288 287 287 287 287 287 286 286 286 285 285 286 286 285 284 284 285 285 285 285 285 285 285 284 284 284 284 284 285
291 290 290 289 289 290 290 290 290 292 296 299 300 302 303 303 303 303 304 304 305 305 305 305 306 306 305 304 303 302 302 302 301 299 298 296 294 293 293 293 292 291 291 291 290 289 288 288 288 288 287 287 287 287 287 287 287 287 286 286 286 286 286 286 285 285 285 285 285 284 284 284 284 284 284 284 284 284 284 284 283 284 283 283 284
287 288 287 288 287 287 288 289 290 290 294 297 299 301 302 302 302 302 302 301 301 302 302 303 303 301 300 299 299 298 299 299 298 296 294 293 292 292 292 292 291 290 290 289 289 288 288 287 287 286 287 286 286 286 286 287 287 287 286 286 285 286 286 285 285 284 284 284 284 284 283 283 284 283 283 283 283 283 283 283 283 283 283 283 283
287 288 288 287 287 287 290 290 290 290 292 295 298 299 300 300 300 299 299 298 298 298 299 299 299 297 296 297 296 296 297 296 295 294 292 291 291 291 291 290 290 289 288 287 287 287 287 287 286 286 286 286 286 286 285 285 286 286 286 285 285 285 285 285 285 284 284 284 284 283 283 283 283 282 282 282 282 282 283 283 282 283 283 283 283
287 287 287 288 289 289 288 288 290 289 291 294 296 298 297 298 297 296 296 295 295 296 297 297 297 297 295 294 294 294 295 294 293 292 291 291 290 290 290 289 289 288 287 287 286 286 286 286 286 286 286 285 285 286 285 285 285 285 285 285 285 285 285 284 284 284 284 284 283 283 283 283 282 282 282 282 282 282 282 282 282 282 282 282 282
289 289 289 288 288 289 289 289 290 289 289 292 295 296 295 295 295 294 295 295 294 295 295 296 295 296 295 293 293 293 293 292 292 291 290 290 290 289 289 288 288 287 287 286 286 285 286 286 285 285 285 285 285 285 285 285 285 285 285 285 285 284 284 284 284 284 283 283 283 283 282 283 282 282 282 282 282 282 282 282 282 282 282 281 281
287 287 287 289 290 289 289 289 288 289 288 289 290 294 295 294 294 293 293 293 293 294 294 294 293 293 293 293 293 292 292 291 290 290 289 289 288 288 288 287 287 286 286 285 285 285 284 284 284 284 284 284 284 284 285 285 285 285 285 285 284 284 284 283 283 283 283 283 282 282 282 282 282 282 282 282 282 282 282 281 282 282 281 281 281
289 289 289 289 289 290 290 289 289 288 288 288 289 290 291 292 293 293 292 292 291 293 293 293 292 293 292 291 291 290 290 289 289 289 288 287 287 287 286 286 286 285 285 285 285 284 283 283 283 283 284 284 285 285 285 285 285 285 285 284 284 283 283 282 282 282 282 282 281 282 282 282 282 282 281 282 282 282 282 280 281 282 281 281 281
289 290 291 290 290 290 290 290 289 289 288 288 288 289 291 292 292 291 291 292 291 292 292 292 292 292 291 290 290 289 289 289 288 288 287 287 286 285 285 285 285 284 284 283 283 283 283 283 282 283 284 285 285 285 284 286 286 285 285 284 283 283 282 282 281 281 281 281 281 281 281 281 281 280 280 281 281 281 282 282 282 282 281 281 281
288 289 290 291 291 291 291 290 290 290 289 289 289 290 291 291 292 291 291 290 291 292 292 292 292 291 290 290 289 289 288 288 288 287 286 286 285 285 284 284 283 283 283 282 282 282 282 282 282 283 284 285 285 286 287 288 287 285 284 283 283 282 282 281 281 280 279 279 280 280 280 280 280 280 280 280 280 281 281 282 282 283 283 282 280
290 289 289 290 291 292 292 292 292 291 291 290 290 289 289 290 291 291 291 289 290 291 292 292 292 290 289 289 289 288 288 288 287 286 285 285 284 284 283 283 282 282 282 282 282 282 281 281 282 283 284 285 286 288 289 288 287 285 283 282 282 282 281 281 280 280 280 279 279 279 279 279 279 279 279 279 279 280 281 282 283 283 282 282 282
291 290 290 290 291 292 293 293 292 292 292 291 291 290 289 290 290 290 289 289 290 291 292 292 290 290 289 289 288 288 288 287 286 285 285 284 283 283 282 282 282 282 281 281 281 281 281 281 281 282 283 284 286 289 289 287 286 285 284 282 281 281 280 280 280 279 279 279 279 279 278 278 278 278 278 278 279 280 281 282 282 282 282 281 282
291 291 292 292 292 292 292 292 293 293 292 291 290 291 290 290 289 288 288 289 290 290 291 290 289 289 289 288 287 287 287 286 286 285 284 283 283 283 282 282 281 281 281 280 280 280 280 280 281 282 283 284 286 288 288 287 285 285 284 282 281 280 280 279 279 279 279 279 278 278 277 277 278 278 278 278 280 281 282 282 281 281 280 280 281
291 290 291 292 292 292 290 289 291 291 290 289 289 290 288 288 288 287 288 288 289 289 290 289 288 288 288 287 287 287 286 285 284 284 283 283 283 282 281 281 281 281 280 280 279 279 279 279 280 281 282 283 285 288 288 286 285 284 283 281 280 280 279 279 279 279 279 278 278 278 277 277 277 278 278 280 281 281 281 281 280 279 279 280 280
291 291 291 291 291 292 292 292 290 290 290 290 290 289 288 288 288 288 287 288 288 288 288 288 288 287 287 287 286 286 286 284 284 283 283 282 282 281 280 280 280 279 279 279 279 279 278 278 280 281 282 282 285 287 287 286 285 284 282 280 279 279 278 278 278 278 278 278 278 278 277 277 277 278 278 281 282 282 281 279 278 278 279 279 279
290 289 290 291 291 292 292 289 289 290 289 289 289 288 288 287 287 287 287 287 287 287 287 287 287 286 286 286 286 286 285 284 283 283 282 282 281 280 280 279 279 279 278 278 278 278 278 278 278 280 281 282 283 286 286 285 284 283 280 279 279 278 278 278 278 278 277 277 277 277 277 277 277 277 279 282 283 282 279 278 277 277 277 277 277
288 287 287 287 287 288 288 289 288 289 289 289 288 288 288 287 287 287 287 286 287 287 288 287 287 286 286 285 285 285 284 283 283 283 282 282 281 280 279 279 279 278 278 277 277 277 277 277 278 278 280 281 281 284 286 285 283 282 279 278 278 277 277 277 277 277 277 277 277 277 277 277 277 278 281 282 282 281 278 278 277 276 275 275 277
286 287 287 287 287 287 287 287 288 288 288 288 288 288 288 287 287 286 287 287 287 288 287 287 287 286 286 285 285 285 284 283 283 283 282 281 280 279 279 279 279 278 277 276 276 276 275 275 276 277 279 279 280 283 285 284 283 281 279 278 277 277 277 277 276 276 277 276 276 277 277 278 279 280 281 281 281 280 278 278 277 276 275 275 277
284 284 284 285 285 287 287 288 288 288 287 287 288 288 287 287 287 287 286 287 287 288 288 287 287 286 285 285 284 284 284 283 283 282 282 281 279 278 277 278 277 277 276 276 276 276 275 275 275 276 277 278 279 281 283 284 283 281 280 278 277 277 276 276 276 275 274 275 276 276 276 278 280 281 280 280 280 280 279 278 277 275 275 275 278
283 284 284 285 286 288 288 288 288 287 287 287 288 288 287 287 287 286 286 287 287 287 286 286 286 285 284 283 283 283 283 282 282 281 280 278 278 278 277 276 276 275 275 275 275 275 274 274 275 275 275 276 277 280 282 284 283 282 281 279 277 277 277 276 275 275 275 274 274 275 276 278 280 280 279 279 280 280 280 278 277 276 277 278 278
283 283 283 285 286 285 285 284 284 286 286 287 287 287 287 287 286 286 287 286 286 286 285 285 284 284 283 282 281 281 281 280 279 279 278 277 276 276 276 276 276 275 274 274 274 274 274 274 274 274 275 275 277 279 281 282 283 282 281 280 278 278 278 276 275 275 275 275 275 275 276 278 279 278 278 279 279 279 278 277 276 278 278 277 275
283 284 283 284 285 285 284 284 284 285 286 287 287 287 286 286 286 286 285 286 285 285 285 284 283 282 281 281 280 279 279 278 278 278 277 276 275 275 275 275 275 275 274 274 273 273 273 273 273 274 275 275 276 277 279 280 282 282 282 281 280 279 280 277 275 274 274 274 275 276 277 278 277 277 278 278 278 278 276 275 276 276 276 275 274
282 281 282 283 283 282 283 282 283 284 285 286 287 287 286 286 286 285 284 284 284 284 283 282 281 281 280 279 278 278 278 277 277 277 276 275 275 274 274 274 275 275 274 274 273 273 273 273 273 273 273 274 275 275 278 279 280 281 282 281 281 280 279 277 276 275 275 275 275 276 277 277 276 277 277 277 276 274 274 274 274 274 273 272 271
281 281 280 282 284 282 282 282 282 282 283 284 285 287 285 285 283 283 283 283 282 282 282 281 280 279 278 277 277 277 276 276 276 276 276 275 274 274 274 274 274 275 275 274 274 274 274 274 273 273 273 273 274 274 276 278 279 280 281 281 280 280 280 279 276 275 275 276 277 277 276 276 275 275 274 273 271 272 272 272 272 272 269 268 269
280 280 279 280 280 281 281 281 280 280 281 282 282 283 285 283 281 281 282 282 281 281 280 279 278 277 276 275 275 275 275 275 276 276 276 276 275 274 275 274 275 275 275 275 274 274 274 274 273 273 273 272 273 273 274 275 277 278 279 280 279 279 278 278 276 275 277 278 277 275 275 274 273 272 270 269 268 268 270 270 269 268 266 267 268
279 277 278 280 280 281 280 279 279 277 277 279 279 279 280 279 279 280 280 280 279 279 278 277 276 275 274 275 275 275 274 274 274 274 275 275 275 275 275 274 275 275 275 275 275 274 274 274 273 273 273 272 272 272 272 274 275 276 276 277 277 276 277 277 275 275 275 273 273 273 272 272 271 271 270 269 268 267 265 265 265 265 266 267 267
276 276 276 278 279 280 278 279 278 277 276 276 275 275 276 277 278 278 278 278 278 278 277 276 275 274 274 274 275 273 273 273 273 273 274 274 274 275 275 275 275 275 275 275 275 274 274 274 274 273 272 271 271 271 272 273 274 274 274 275 275 274 275 274 273 274 271 270 270 270 268 266 265 264 264 263 263 263 264 264 264 264 264 266 266
277 275 275 277 276 276 276 277 276 274 274 274 273 273 274 276 277 276 278 278 277 276 275 274 273 273 273 273 273 273 273 273 273 272 272 272 274 274 275 275 275 276 277 277 276 276 276 276 276 273 271 271 271 271 272 275 274 276 274 274 273 274 274 273 274 273 267 266 265 265 264 263 263 262 262 262 262 262 262 262 261 262 264 264 264
273 273 273 274 273 274 274 274 273 271 272 273 272 272 273 274 274 276 277 278 276 275 274 273 273 273 272 273 272 272 272 272 272 272 272 270 274 276 275 274 274 277 278 278 279 277 277 276 276 275 274 273 272 273 276 277 278 278 278 277 276 276 276 274 276 275 268 263 263 262 262 261 261 261 261 261 261 261 261 261 261 263 263 263 263
273 275 273 273 272 271 272 271 271 270 270 271 271 271 272 272 273 274 276 276 276 275 274 272 272 272 272 272 272 271 271 271 271 271 271 271 271 273 277 277 277 276 277 277 278 279 279 278 276 274 275 276 276 277 278 278 279 279 279 278 278 278 277 277 276 269 264 263 262 262 261 261 261 260 260 260 261 260 260 260 260 261 261 262 262
Wind_Speed
7 5 6 7 9 9 8 8 8 8 9 10 10 11 12 11 9 11 9 8 8 8 8 8 7 6 5 7 7 6 6 6 6 5 4 5 6 5 6 5 5 5 8 7 7 6 5 4 5 4 3 3 3 4 2 1 1 2 1 1 1 2 1 0 1 2 3 5 4 4 4 3 2 0 2 4 7 2 2 3 3 4 5 6 6
6 3 5 7 8 8 8 8 8 10 10 10 12 12 11 11 12 11 9 9 9 10 8 8 8 7 7 6 5 6 6 7 7 6 7 6 6 6 6 6 7 6 5 4 4 5 5 5 4 3 3 4 4 2 2 2 3 2 2 2 2 0 1 2 3 4 3 5 6 6 1 2 2 2 3 7 5 2 2 4 3 3 5 5 5
8 9 6 7 8 8 8 9 10 13 12 13 12 11 11 11 11 10 10 10 10 10 9 9 8 8 8 7 9 6 6 7 8 8 9 7 7 7 7 7 5 3 4 6 6 6 7 6 5 4 3 3 2 3 3 3 3 3 3 2 2 2 0 2 3 4 2 4 1 3 4 5 2 3 1 4 1 2 3 3 2 3 6 5 4
13 11 11 10 9 8 8 9 11 11 11 10 10 12 11 11 11 11 10 10 10 10 10 9 10 9 8 6 7 6 5 5 5 3 5 6 6 5 5 5 7 7 7 6 6 6 5 5 3 3 4 4 4 3 3 3 2 2 3 2 4 3 2 2 3 3 2 2 3 2 2 1 5 3 9 5 2 2 1 2 2 4 4 4 4
13 11 10 9 10 12 13 13 10 11 11 12 12 13 11 14 13 13 11 11 10 10 10 9 7 6 4 3 3 3 2 4 4 4 6 7 6 5 7 6 6 6 6 5 5 5 4 4 4 4 4 4 4 4 3 3 3 3 5 5 4 3 3 2 3 3 2 1 1 1 1 0 1 4 7 5 4 6 5 4 2 3 4 6 6
13 13 13 12 11 9 9 10 11 11 11 13 13 13 13 12 12 12 10 10 11 11 11 9 9 9 8 8 7 6 6 5 9 8 6 5 7 6 6 7 7 5 3 4 4 4 4 5 5 5 5 4 4 4 4 4 4 4 4 5 5 2 3 3 2 2 3 4 4 2 1 1 2 2 2 3 5 6 5 6 7 5 5 9 9
10 10 8 7 10 9 11 12 13 13 15 12 12 12 13 12 12 13 12 11 11 11 12 10 10 10 12 11 10 9 9 7 6 7 8 7 5 6 5 4 4 4 3 4 4 4 4 4 4 4 4 4 4 6 6 5 4 4 3 4 4 4 4 3 3 3 3 5 5 5 5 5 2 1 1 3 5 3 5 5 5 6 8 10 9
12 13 13 11 10 12 15 15 13 16 13 10 11 10 13 14 13 13 11 11 11 11 12 12 12 11 12 12 10 10 11 10 9 8 7 7 6 5 3 2 3 4 4 3 6 7 7 6 6 5 5 5 5 4 5 5 4 3 3 5 4 3 3 3 4 2 1 2 3 3 4 4 4 4 5 1 3 5 4 1 1 6 8 5 6
12 12 13 14 14 14 13 12 14 12 11 11 11 12 12 12 12 11 12 11 11 13 13 13 13 13 12 11 11 10 10 8 6 5 6 6 7 5 4 3 3 4 5 6 5 5 5 6 6 5 5 5 4 5 4 4 4 4 3 2 3 3 2 3 3 3 2 1 0 2 2 4 4 5 6 2 2 2 5 3 7 3 3 4 3
8 12 12 11 11 12 11 7 5 11 9 8 7 7 8 8 11 12 12 11 11 12 13 14 14 12 12 12 13 11 8 5 6 7 6 6 8 7 5 5 4 5 5 4 5 4 5 5 5 6 5 4 4 5 5 4 3 4 4 4 5 5 4 4 4 4 4 4 3 3 3 3 3 2 3 3 1 2 4 7 6 9 9 3 5
9 10 9 10 6 7 6 11 10 5 7 7 8 9 8 9 11 12 13 10 11 12 13 14 13 12 12 13 14 13 11 10 8 8 6 6 7 6 7 6 6 7 5 4 3 5 4 4 5 5 5 5 5 5 4 5 5 5 5 7 6 6 5 6 6 6 5 5 5 4 4 3 3 2 1 2 2 1 4 5 6 4 7 11 1
6 7 11 10 7 8 6 10 9 9 6 9 8 8 9 10 10 12 10 11 10 12 13 13 12 13 13 13 14 13 13 11 13 12 10 10 8 8 6 7 5 5 4 4 4 5 4 5 5 6 5 5 5 5 5 6 6 6 5 5 6 6 6 6 6 6 7 6 7 6 5 5 4 4 2 1 1 2 2 6 7 7 5 5 6
7 8 8 6 10 11 11 11 8 9 11 11 12 11 10 10 12 13 13 11 12 12 13 13 13 13 13 13 13 11 12 12 13 11 11 10 9 8 8 8 7 5 5 5 6 7 6 6 5 5 4 5 6 7 6 6 6 6 7 7 6 6 5 6 6 6 6 6 6 4 5 5 5 3 2 1 1 1 1 4 3 3 5 8 4
7 7 7 9 9 9 8 8 10 10 11 11 11 11 10 10 12 13 13 12 11 12 13 13 14 13 13 12 12 10 12 12 11 11 10 9 9 11 10 10 9 10 8 7 6 6 6 6 6 6 5 6 6 6 6 6 7 7 7 7 7 6 7 8 8 7 6 6 5 5 5 5 4 3 3 2 2 1 2 3 6 4 5 6 4
7 8 9 9 9 8 8 9 9 9 10 9 9 9 9 10 10 12 11 11 11 12 12 13 12 12 12 12 11 10 11 11 10 9 10 10 9 11 10 10 10 9 8 6 7 6 7 6 5 6 6 6 7 7 5 6 7 7 7 8 6 5 6 7 7 7 6 6 6 5 5 5 4 3 3 3 3 2 1 2 3 8 6 4 2
6 7 8 9 8 7 7 8 8 7 7 7 8 8 10 11 11 12 12 11 11 11 11 12 12 11 11 12 11 11 9 9 8 8 9 10 11 11 9 9 8 8 6 7 6 7 7 7 6 6 6 7 7 7 7 6 6 7 7 6 7 4 6 7 6 6 6 6 6 5 5 4 4 4 4 4 3 3 1 1 2 1 4 9 7
5 7 8 7 5 6 7 6 6 6 6 8 8 7 9 8 8 9 8 7 9 10 10 10 10 10 11 11 11 10 11 11 10 10 10 8 9 9 9 7 8 7 7 5 7 7 9 8 7 7 6 6 6 6 6 6 6 6 5 6 6 5 5 6 4 5 5 5 5 5 5 4 3 3 3 3 3 3 3 2 1 1 1 2 6
6 7 6 6 6 6 5 4 6 7 7 6 6 5 5 5 6 8 7 8 8 9 9 9 10 11 10 11 11 12 11 11 10 10 9 9 6 6 8 8 7 7 7 7 8 9 9 7 8 7 6 7 7 7 8 7 7 5 5 5 5 5 7 5 4 5 5 5 6 5 4 5 3 3 3 3 3 3 3 2 2 1 0 0 2
8 8 7 6 6 5 5 5 4 5 5 5 5 6 5 5 6 6 8 7 7 7 7 6 8 8 9 10 11 10 9 9 9 10 9 10 10 8 9 8 8 8 8 8 9 9 9 7 8 8 7 8 8 8 8 8 7 6 5 6 5 5 7 7 4 5 4 5 6 7 4 4 3 3 3 3 3 2 2 1 1 1 1 1 2
6 5 5 5 5 5 6 6 6 6 6 6 6 5 6 5 6 6 4 5 5 6 7 8 8 7 8 7 7 8 9 9 9 10 9 10 10 10 10 10 10 8 7 9 9 10 10 9 7 8 8 8 8 7 7 8 7 6 6 6 5 6 8 7 5 4 4 5 6 7 5 4 3 3 3 3 3 2 2 2 2 1 1 1 2
6 5 5 5 5 5 5 5 5 5 4 5 6 5 5 5 6 6 7 7 7 6 6 6 6 6 7 9 8 7 8 7 9 10 11 10 10 10 10 10 9 9 9 9 10 10 10 9 9 8 9 9 9 8 6 7 7 7 5 6 6 7 8 6 5 6 4 5 6 7 5 4 2 3 3 2 3 2 2 2 2 1 1 1 2
6 5 4 5 4 4 3 3 3 4 5 6 5 5 6 6 6 6 6 6 6 7 7 7 6 6 7 7 8 6 8 8 9 9 9 9 9 11 10 8 10 9 10 11 11 9 9 9 9 9 8 8 8 8 7 7 8 8 7 4 6 7 8 6 5 6 4 3 5 6 5 4 2 4 4 3 3 2 2 2 2 2 2 2 2
5 5 6 5 5 5 6 7 7 7 6 6 5 6 6 6 5 5 6 6 7 7 6 6 6 7 7 6 7 7 8 8 9 8 9 10 8 8 10 11 9 9 7 10 11 10 10 9 9 9 9 8 8 8 6 7 8 9 8 6 5 6 7 7 7 5 4 4 5 5 5 4 2 4 4 3 2 3 2 2 3 2 2 3 3
4 3 3 4 3 3 4 5 6 6 6 7 6 5 6 6 6 6 7 6 5 5 6 6 6 6 7 7 8 7 9 9 9 8 9 8 8 7 8 10 10 9 11 8 10 10 10 9 10 9 9 9 8 7 6 6 8 9 8 8 6 6 6 6 6 5 4 4 5 5 4 3 3 4 4 3 2 2 2 2 2 3 4 5 5
3 4 5 3 3 6 7 6 6 6 5 6 6 6 6 6 5 6 4 4 5 5 6 6 7 8 7 8 8 8 8 9 9 8 9 9 8 8 8 11 10 10 10 11 8 8 9 10 10 11 10 9 8 8 8 7 6 6 8 7 7 7 6 6 5 5 4 5 4 5 4 3 3 4 3 3 2 3 2 3 5 5 5 6 6
4 4 3 7 6 4 3 4 5 6 7 6 6 6 5 5 6 4 5 4 4 4 6 7 7 9 8 8 8 8 9 9 9 9 10 10 10 9 10 8 10 13 10 10 11 8 9 10 9 9 9 9 8 8 8 8 7 7 7 7 7 7 6 5 5 4 4 4 4 4 4 3 4 4 4 3 3 3 3 5 6 6 6 6 7
5 6 6 3 4 7 7 6 6 5 5 6 6 6 5 5 5 4 5 6 6 6 6 7 7 7 9 8 8 8 8 8 9 9 8 9 9 9 10 11 9 11 12 11 9 9 7 9 9 9 9 8 8 7 8 8 7 7 8 8 7 6 6 5 5 5 4 4 4 4 4 4 4 4 3 3 3 5 5 5 6 6 6 7 7
3 4 5 8 7 6 7 8 7 8 6 5 4 4 5 6 6 5 5 5 6 6 6 6 7 6 7 9 8 7 7 7 7 8 9 8 9 9 9 9 10 11 11 11 10 10 8 8 9 9 7 7 8 8 7 7 7 7 7 7 6 7 7 6 5 4 4 4 4 4 4 4 4 3 3 3 4 4 4 4 5 5 6 7 7
5 7 7 7 9 9 9 8 9 6 7 7 6 5 4 3 4 5 6 6 5 6 6 6 6 6 6 5 6 6 6 8 8 8 9 10 9 9 9 9 9 9 8 9 8 9 11 10 8 8 7 6 7 7 7 7 8 7 6 7 7 7 7 6 5 5 4 3 3 4 3 4 5 5 6 5 5 4 3 4 5 5 6 7 7
8 8 8 8 9 8 8 8 7 9 8 7 7 7 8 8 7 6 6 5 6 5 6 6 6 5 6 6 6 6 7 7 8 9 9 10 10 10 9 9 9 9 9 9 8 9 9 10 10 8 7 7 6 4 7 9 7 7 7 6 6 6 6 6 6 5 4 4 4 3 3 5 5 5 5 6 6 6 5 4 4 5 7 7 7
8 8 8 8 8 8 8 9 10 9 10 9 9 9 8 9 8 8 7 5 6 7 5 7 6 6 6 7 7 7 7 8 8 8 9 10 10 9 9 9 9 9 9 9 9 10 9 9 10 9 9 7 6 6 12 12 12 11 7 7 7 6 6 5 5 5 5 4 3 3 3 3 3 3 4 5 6 5 5 6 6 7 7 7 7
9 8 7 8 9 10 11 12 11 11 11 11 10 10 9 10 8 8 7 6 7 6 7 7 7 7 7 7 7 8 8 8 8 10 10 9 9 9 9 10 9 10 9 8 9 10 10 9 8 9 9 8 7 9 14 14 13 11 8 7 6 6 5 5 5 5 4 4 3 3 2 2 2 4 3 2 3 4 5 6 7 8 8 10 10
9 8 8 9 11 12 12 10 9 11 12 13 11 10 12 11 10 8 7 8 8 8 7 7 7 8 8 7 8 8 8 8 8 9 9 9 9 9 9 9 10 9 9 10 10 11 10 9 9 10 9 8 7 12 14 14 13 12 12 8 5 5 6 5 5 5 4 4 3 2 2 1 2 3 2 2 2 3 4 7 8 8 8 9 10
8 9 8 9 8 7 8 9 10 10 10 8 10 11 9 7 9 8 10 9 9 8 7 7 7 8 8 8 8 8 9 9 9 9 9 10 9 10 8 8 8 8 9 9 8 10 10 9 9 10 9 8 7 11 14 14 13 13 12 8 5 6 6 6 5 4 4 4 3 2 1 2 2 3 2 2 4 5 6 7 6 6 6 8 9
9 8 10 10 8 6 5 7 9 9 7 8 8 7 6 7 8 9 8 9 9 9 8 8 9 8 8 8 9 9 9 9 9 9 9 9 9 8 9 8 9 10 10 11 10 10 9 7 9 7 9 8 6 13 14 14 13 13 12 9 6 5 5 5 5 4 4 4 2 2 2 2 2 3 3 5 6 7 7 6 6 6 7 7 7
11 11 7 6 8 10 10 10 5 7 8 8 9 7 8 8 7 9 9 9 9 9 9 8 9 9 10 10 10 10 10 10 10 9 10 10 9 10 11 8 8 6 5 6 5 6 9 8 7 8 9 9 7 14 14 14 13 13 12 6 6 6 6 5 5 4 4 3 2 2 2 2 2 3 4 7 8 7 6 6 6 6 6 6 6
5 3 6 8 6 7 7 4 5 7 8 9 7 8 8 8 9 9 9 9 9 10 10 10 10 10 10 10 10 11 11 10 10 10 11 11 11 10 8 7 9 8 9 8 8 7 6 8 9 8 9 8 7 12 14 14 13 13 8 5 5 5 5 5 4 4 3 3 2 2 2 1 3 3 5 9 10 9 5 6 6 6 6 6 7
1 2 2 3 4 4 3 6 6 7 7 6 7 9 9 9 8 8 9 9 10 11 10 11 10 9 10 10 11 11 11 11 11 13 12 10 8 6 8 8 11 11 9 8 8 8 6 6 9 8 8 9 7 10 15 14 13 12 8 6 5 5 5 4 4 4 3 2 3 3 2 1 3 4 7 9 10 8 5 6 7 7 7 7 7
5 5 5 4 5 4 4 4 5 7 6 7 9 10 9 9 9 9 9 10 11 11 11 11 11 10 10 10 9 9 10 11 11 11 10 11 10 10 7 6 6 7 8 7 7 8 7 5 4 6 7 8 8 9 15 14 14 13 8 5 5 5 6 5 4 3 3 2 1 1 2 2 3 4 8 8 9 8 6 6 7 7 8 8 7
2 2 3 3 2 4 3 6 8 6 6 8 9 9 8 9 8 8 9 11 11 8 5 5 6 7 7 8 8 9 9 10 11 9 8 8 7 8 8 8 7 6 8 7 7 7 9 7 6 6 6 6 8 7 10 16 14 13 12 6 5 6 6 6 5 4 3 2 2 0 1 2 4 7 8 8 8 9 6 6 6 6 8 9 8
2 3 3 2 3 3 4 3 2 5 7 7 8 8 8 7 7 8 11 7 4 5 6 6 7 7 7 7 6 7 8 6 6 7 6 6 6 8 8 8 9 7 8 8 8 8 8 7 6 5 5 5 5 7 9 15 14 14 14 10 5 5 6 6 5 5 4 3 1 1 1 2 6 7 7 7 8 8 8 5 5 6 8 11 13
0 1 1 4 3 3 4 3 3 6 7 8 8 8 7 7 7 9 7 5 6 7 7 7 8 7 7 7 7 6 6 7 7 8 9 7 5 6 7 9 8 9 11 10 9 8 8 6 5 5 4 5 3 5 8 13 14 14 13 11 6 6 6 6 6 5 4 3 2 1 1 2 5 5 6 6 7 7 8 4 6 11 14 14 10
3 4 3 4 5 4 4 3 3 5 6 7 8 8 7 6 8 7 5 6 6 7 8 8 8 8 8 9 8 9 9 8 9 9 10 9 8 8 8 8 10 10 10 11 10 9 8 7 4 4 3 4 4 4 7 8 13 14 14 12 11 8 11 6 6 6 5 3 3 2 1 2 3 4 5 5 5 7 5 5 10 11 12 14 10
2 2 1 4 6 4 4 3 2 4 5 6 8 7 7 7 7 4 6 6 7 7 7 8 8 8 8 8 8 9 8 8 10 10 9 10 9 8 8 8 9 10 10 10 8 7 7 8 7 6 4 4 3 3 6 9 10 14 13 12 12 11 11 6 5 5 4 4 3 2 1 1 2 4 5 5 6 6 5 8 9 11 12 11 6
3 3 3 2 5 6 5 4 3 2 2 3 3 6 6 6 3 5 6 7 6 7 7 7 7 7 7 7 7 7 8 8 8 10 11 10 10 10 10 7 9 9 9 10 9 7 7 7 7 7 6 6 5 5 5 9 12 12 12 12 11 11 11 11 6 5 5 4 4 4 4 4 4 5 6 7 6 6 8 8 10 11 10 4 5
3 4 5 4 5 6 5 6 5 3 2 1 1 2 5 3 4 4 5 6 7 7 7 6 6 6 6 7 8 5 5 6 7 6 8 8 11 11 10 9 8 8 8 9 9 8 7 7 7 6 7 7 6 5 6 6 8 9 9 11 11 10 10 10 8 6 7 7 6 6 6 7 7 6 4 3 3 3 7 9 10 9 4 5 5
4 2 1 4 4 6 5 5 4 3 3 2 2 2 3 5 5 4 5 6 6 7 6 6 6 6 5 6 8 7 6 5 5 4 4 5 5 6 7 8 9 9 9 8 9 9 9 9 9 8 7 6 6 6 6 7 7 7 8 8 8 7 9 9 6 6 6 5 5 5 5 8 7 6 5 5 4 5 4 4 4 3 3 5 5
2 3 2 4 5 5 5 5 4 3 2 3 3 3 3 5 4 5 6 6 6 7 7 6 6 5 5 5 6 7 7 6 5 6 6 6 5 6 8 10 12 12 12 10 10 10 11 11 11 10 9 6 6 6 7 9 9 8 8 7 7 6 7 6 6 6 5 4 4 6 7 5 5 3 1 1 0 1 2 3 3 3 2 4 5
5 4 4 5 4 6 4 5 3 2 2 3 4 3 3 4 5 5 6 7 6 5 6 6 6 6 5 4 5 6 6 6 6 5 3 4 7 8 8 6 4 3 5 9 12 12 11 10 9 12 11 7 6 9 12 11 10 14 12 10 9 8 7 6 8 10 6 6 5 5 4 4 3 1 1 0 1 1 2 2 2 2 2 3 4
3 4 5 6 5 5 5 4 2 2 3 4 4 3 3 3 3 4 5 7 7 6 6 6 6 6 6 6 5 5 5 5 6 6 6 2 1 5 4 5 6 3 1 2 4 7 7 8 9 10 13 13 15 14 13 19 18 18 17 16 12 13 12 8 11 16 8 5 4 4 3 3 2 2 1 1 1 1 1 2 2 4 3 3 4
2 5 5 6 4 4 5 4 2 2 3 3 4 3 3 2 2 3 5 6 7 6 5 5 6 5 6 6 5 5 5 5 5 6 5 6 3 1 3 3 4 4 4 4 5 4 6 9 6 8 7 2 0 10 19 19 19 18 17 16 16 15 16 15 15 10 4 6 5 5 4 3 2 2 1 1 0 0 0 1 1 1 1 2 4
Wind_Direction
236 212 198 200 201 200 200 194 199 199 198 196 198 203 202 200 191 207 203 197 191 189 190 187 186 189 203 201 203 203 205 202 201 199 191 197 194 192 190 186 213 195 176 171 192 194 204 219 227 215 163 180 206 233 241 219 204 209 198 146 232 281 335 218 27 302 340 322 288 293 315 304 49 348 84 18 9 15 13 3 5 350 350 350 350
270 267 217 206 205 201 195 198 193 197 211 198 202 204 199 198 201 204 193 198 199 196 191 192 192 191 184 188 184 197 201 201 207 207 198 192 193 191 193 197 189 191 179 173 186 188 206 221 228 218 177 200 209 206 218 214 195 193 185 185 182 251 331 23 357 347 34 354 335 343 231 327 19 76 25 19 350 20 9 10 13 357 347 345 345
244 238 227 221 215 207 199 204 206 211 207 202 204 198 201 203 206 197 197 197 203 199 194 200 195 192 191 190 189 197 211 201 197 194 188 187 189 193 193 190 186 212 174 182 192 199 210 213 217 204 191 171 213 234 217 224 215 215 181 186 128 104 82 40 41 53 10 318 290 346 3 353 335 10 9 354 338 348 8 12 3 4 345 342 343
241 230 226 217 212 212 208 209 211 211 212 205 202 204 204 207 203 198 198 198 200 199 199 200 194 195 199 192 200 181 179 191 201 216 194 166 186 187 196 195 184 182 187 192 203 206 203 211 199 177 181 189 210 227 225 221 182 162 151 165 133 116 114 93 64 81 87 334 6 16 311 46 322 19 340 332 122 255 190 26 0 358 344 333 335
236 234 232 214 208 209 205 210 208 212 210 208 203 204 204 206 204 199 197 197 196 192 195 186 167 151 125 79 126 116 80 158 167 191 197 184 163 178 204 199 220 200 181 188 184 203 192 194 195 199 197 200 194 196 166 151 133 140 148 144 156 135 134 134 54 35 130 22 71 251 113 344 245 306 339 299 358 348 339 351 8 12 357 340 343
228 228 225 216 214 211 212 213 212 214 214 214 208 206 204 205 201 199 198 195 195 192 187 178 180 175 168 169 170 190 194 173 187 186 177 187 182 184 192 188 190 202 188 174 183 190 199 202 206 195 190 177 162 133 116 116 131 142 152 144 136 121 122 136 126 43 66 65 52 32 357 266 275 314 297 307 337 320 317 332 337 12 6 351 336
236 247 244 221 215 206 212 209 209 210 217 210 207 206 204 206 201 196 195 196 193 189 181 180 186 187 187 191 191 192 199 203 191 184 182 194 184 180 183 164 170 178 181 182 153 143 150 151 131 126 124 115 119 127 128 140 139 133 137 116 123 140 145 128 144 154 103 67 66 49 58 54 88 272 263 309 312 322 324 318 322 358 358 345 330
222 225 230 225 217 208 214 210 204 212 212 207 208 200 203 206 200 197 196 195 192 184 181 184 188 191 196 200 200 201 201 195 185 189 188 166 162 152 126 96 111 140 145 150 148 144 139 128 122 121 113 113 124 132 135 134 125 121 130 125 127 141 139 127 139 131 166 110 58 49 52 40 48 66 76 149 255 293 304 255 316 0 333 315 307
216 223 226 219 216 217 218 211 213 210 205 204 202 202 205 204 200 196 198 195 191 183 183 188 190 190 194 196 202 206 203 198 176 144 172 166 155 126 126 122 119 118 147 145 128 115 121 126 123 121 121 130 132 127 125 135 137 139 142 129 122 104 74 110 118 123 103 100 116 63 77 66 87 100 88 46 229 261 285 309 314 311 263 282 285
225 228 233 228 221 222 219 231 217 213 207 204 203 201 203 197 200 196 202 195 189 186 186 190 192 188 193 197 201 200 193 157 152 167 174 175 164 162 148 152 143 130 123 114 123 123 119 118 122 124 132 134 128 127 126 118 120 106 103 112 111 106 67 74 101 92 83 75 68 82 95 92 113 84 56 14 284 227 286 309 325 329 328 312 296
229 234 241 243 236 231 210 216 219 207 204 195 198 197 192 195 198 201 204 194 189 189 188 192 192 191 195 195 198 195 189 168 158 165 156 170 165 156 159 160 156 151 128 104 61 100 105 112 122 126 126 126 127 129 133 130 120 113 108 95 87 102 100 101 87 83 94 81 74 75 81 79 107 117 38 25 40 333 310 291 312 314 303 313 163
239 234 240 235 243 241 214 226 212 207 192 199 198 191 193 195 192 201 203 197 192 191 190 193 191 195 198 196 197 194 185 178 171 171 173 170 168 165 160 140 138 145 138 138 144 139 138 129 131 118 125 138 134 133 130 126 120 112 104 98 97 90 101 104 104 98 98 96 89 90 91 92 88 86 79 57 36 344 295 291 308 321 284 223 296
248 244 246 237 227 225 216 220 200 203 202 195 195 193 193 191 192 196 203 195 194 190 192 192 193 196 196 197 200 191 187 186 188 185 179 175 167 155 156 154 148 156 172 162 164 161 155 125 116 122 127 136 137 135 131 122 115 108 107 101 101 106 108 111 108 111 115 113 115 92 100 91 84 77 90 97 35 345 282 307 285 297 289 300 304
242 243 241 237 233 233 228 219 212 207 203 198 194 189 190 192 194 197 204 191 192 192 193 194 197 196 196 197 196 185 190 189 191 185 182 177 168 165 169 165 167 174 173 181 167 165 105 116 125 119 127 135 134 128 121 115 113 113 112 110 107 106 110 110 111 111 102 105 111 106 83 85 82 78 89 84 73 31 8 341 317 291 244 283 303
233 239 237 235 233 222 220 216 218 216 203 198 192 192 183 194 191 199 200 193 192 195 193 197 197 196 197 199 195 187 188 190 191 185 177 174 174 169 173 166 168 168 172 155 164 124 119 129 126 128 137 136 130 123 113 109 112 111 109 111 108 113 115 113 110 110 107 104 98 103 106 86 86 81 80 77 82 67 40 5 357 336 322 208 230
225 235 243 240 230 218 215 217 217 215 213 194 195 184 183 194 194 198 199 189 191 192 196 195 197 196 196 196 196 190 188 187 185 181 180 175 172 171 173 173 157 144 137 152 148 123 130 124 124 131 137 135 130 122 121 114 116 111 116 117 114 119 115 106 110 108 105 110 109 115 105 91 86 85 79 83 84 73 70 63 40 23 353 325 323
242 237 239 238 231 225 211 203 189 206 207 205 201 193 194 189 192 196 197 184 191 195 195 196 195 194 197 196 193 189 186 187 184 180 177 174 170 169 161 153 135 132 145 152 132 119 109 113 127 133 126 125 121 117 109 106 104 107 115 121 118 123 107 103 114 108 111 115 108 103 95 101 88 91 87 83 84 79 77 64 40 62 66 303 326
250 251 242 228 215 207 198 205 205 204 204 202 198 191 193 189 188 190 187 183 186 195 198 196 193 195 195 196 194 191 189 187 178 172 163 155 144 141 133 137 150 142 141 139 120 116 102 121 113 119 125 122 118 109 107 106 108 100 112 110 123 127 108 103 97 105 110 110 106 94 88 86 92 82 84 83 80 88 84 76 83 49 73 208 285
243 237 232 228 212 205 195 207 200 207 207 199 180 173 180 191 194 198 198 198 191 197 203 205 199 197 197 195 192 189 187 180 173 160 156 154 153 156 151 140 129 136 133 131 125 118 120 125 123 124 129 120 109 109 109 109 119 120 128 125 130 125 107 98 90 97 109 112 99 90 84 82 77 80 79 74 65 63 63 85 71 45 13 310 266
258 254 235 224 213 198 191 186 186 195 193 185 171 167 181 191 193 201 200 191 190 201 207 208 201 195 193 189 190 183 177 170 163 157 158 160 156 152 142 143 148 140 139 136 132 134 128 134 135 135 129 122 115 111 114 119 119 119 133 126 134 123 104 103 103 88 98 95 99 92 84 81 66 76 66 60 60 54 52 54 50 51 359 327 294
253 237 220 209 219 210 198 195 189 187 192 166 162 171 180 180 200 192 196 196 202 204 201 211 189 194 180 181 174 167 164 157 156 164 158 155 154 147 150 149 140 144 140 136 136 139 138 138 140 143 137 133 129 125 128 129 124 121 116 119 125 115 109 111 110 94 83 95 98 100 94 88 99 89 83 78 65 59 56 42 57 57 6 336 322
242 227 212 202 209 218 193 159 172 173 186 168 164 168 177 184 193 187 189 198 194 194 199 192 191 179 179 167 162 157 152 152 155 154 149 147 154 151 141 143 146 145 145 141 136 135 136 140 143 138 130 125 121 124 137 142 130 122 114 120 120 115 109 109 102 97 98 98 105 102 95 92 90 94 84 79 64 58 57 41 33 33 3 342 318
244 215 213 216 197 193 186 183 180 185 181 176 179 182 178 181 183 189 188 197 189 186 181 173 168 166 163 155 150 153 152 152 150 150 149 148 147 145 147 144 141 140 137 137 137 137 141 144 137 134 130 124 126 131 145 140 129 126 122 111 109 110 110 111 103 107 112 118 102 94 92 95 103 97 88 78 73 52 42 41 15 0 354 334 321
262 253 239 216 203 181 172 192 189 192 190 185 189 191 179 181 185 187 195 182 169 165 160 159 157 152 150 149 154 152 153 151 151 152 149 143 140 149 143 133 138 138 132 124 132 136 142 148 139 134 132 128 129 138 136 127 127 128 119 117 115 104 101 104 112 121 123 115 110 103 97 103 108 100 90 81 66 48 41 21 6 351 343 332 323
247 231 225 224 201 198 206 199 195 190 193 192 192 193 187 183 179 184 181 165 153 150 150 153 150 145 150 153 152 154 153 153 149 150 149 141 142 143 137 137 137 127 130 130 126 141 142 147 146 142 137 137 143 141 129 123 117 114 118 120 114 108 107 109 113 117 119 118 108 100 113 114 113 97 88 70 48 36 21 11 359 352 343 335 328
234 231 233 224 222 231 229 216 211 204 196 194 194 191 193 177 180 167 154 148 154 151 154 152 158 152 154 156 156 155 158 155 149 148 149 145 143 144 138 136 138 130 131 140 140 154 156 146 138 135 130 131 136 134 127 128 122 121 117 109 107 108 112 115 115 112 112 105 107 107 108 105 86 78 66 53 40 15 13 5 1 353 344 334 326
232 223 222 225 231 223 221 223 221 213 207 202 194 190 184 177 168 161 163 163 163 162 160 159 164 163 155 160 162 160 153 151 150 146 142 141 142 142 141 133 141 141 143 140 146 140 146 134 125 123 130 137 133 129 129 125 126 126 118 114 114 116 113 110 103 104 99 100 101 100 91 79 72 69 58 40 22 14 14 1 355 351 338 333 325
255 255 234 223 226 223 219 217 212 214 206 211 212 203 184 180 177 177 172 171 167 160 162 160 160 160 163 160 160 154 147 144 139 138 140 138 134 135 134 133 140 144 146 147 151 145 132 121 120 121 125 130 130 128 124 126 129 124 117 117 124 123 118 110 106 100 99 99 94 85 75 72 64 57 55 35 29 20 7 359 352 348 339 334 327
247 240 231 227 227 224 219 214 214 205 205 197 191 198 197 198 194 181 175 181 171 162 162 161 158 163 160 153 140 137 130 136 137 135 134 120 119 121 131 137 142 139 138 142 138 132 129 116 111 121 130 132 129 134 135 146 132 117 117 124 128 125 122 120 116 109 103 96 87 76 73 62 55 55 44 41 31 24 11 358 349 343 335 330 324
250 239 230 227 230 229 227 220 214 206 201 193 192 193 191 188 191 190 190 182 160 171 161 159 161 157 151 147 142 139 141 139 140 140 139 126 125 134 141 141 142 138 136 138 133 132 130 130 129 131 128 127 127 123 146 136 121 127 132 126 120 119 121 126 129 126 111 96 83 79 69 63 63 57 44 35 30 27 17 0 339 334 332 329 324
251 246 232 228 228 226 222 218 218 208 204 196 196 194 193 194 191 183 186 170 166 169 170 164 165 155 152 145 145 147 142 148 146 140 135 145 145 144 143 141 139 142 143 144 139 135 131 131 136 139 135 130 130 137 143 130 128 130 130 128 126 124 125 129 133 125 117 108 103 93 87 79 82 55 42 28 16 18 8 352 339 332 332 328 324
260 243 229 227 226 222 219 218 209 204 200 198 194 191 186 200 187 184 175 155 171 174 173 175 162 154 155 157 153 148 152 152 149 140 138 148 144 144 146 145 143 144 145 142 141 134 127 131 129 127 126 128 128 147 138 131 130 130 132 128 126 126 130 128 123 114 111 112 101 94 87 81 50 31 33 17 343 338 333 346 340 337 332 324 314
249 251 234 225 224 221 219 217 208 205 203 204 190 181 196 190 180 176 147 167 179 178 175 173 163 161 162 162 158 160 155 151 154 151 150 146 148 147 147 150 153 148 142 147 140 130 132 133 135 134 130 133 133 146 137 133 133 133 131 124 120 124 123 121 115 111 111 109 100 93 92 49 38 13 11 349 315 304 276 331 339 337 328 320 315
240 238 236 238 231 229 220 214 213 213 207 192 188 196 192 174 167 157 166 174 172 177 175 172 163 170 167 162 160 160 158 158 154 152 152 153 155 158 152 146 141 147 148 139 138 140 135 140 141 133 128 131 136 145 138 134 134 132 129 122 119 121 113 110 110 111 110 105 99 104 95 34 16 352 334 331 340 339 347 342 342 337 329 321 315
244 243 237 235 233 234 225 218 218 204 188 175 192 188 156 155 160 165 171 167 175 170 176 173 172 168 163 163 165 166 161 158 157 156 158 161 159 150 151 155 157 156 155 155 153 149 149 140 137 133 129 134 140 146 141 137 134 132 127 121 115 112 108 106 103 101 99 97 97 106 70 48 6 335 322 355 350 346 340 339 336 329 324 318 314
234 227 235 220 223 223 218 225 194 176 189 187 188 168 162 169 162 166 168 173 171 174 176 168 174 174 173 171 166 166 162 161 162 162 163 164 162 162 158 157 148 137 119 123 120 131 142 143 138 138 132 134 145 149 144 139 135 131 126 117 119 115 113 112 107 103 99 92 93 77 57 24 336 310 326 347 345 342 337 337 331 323 319 319 306
248 189 220 220 222 220 225 186 172 185 182 192 170 163 164 158 168 174 170 172 171 178 181 180 182 177 175 170 169 167 168 168 166 165 169 169 165 163 159 153 144 146 145 150 149 145 143 143 145 146 139 135 140 153 150 142 137 134 126 120 123 118 119 119 117 115 110 97 86 58 46 4 308 304 325 343 344 346 338 333 328 323 318 308 305
241 262 275 262 244 237 212 178 178 189 191 168 160 164 161 165 172 168 171 176 181 190 186 182 181 174 175 175 176 173 169 170 172 177 174 169 159 151 159 165 157 153 152 151 141 132 135 145 149 149 150 141 144 154 155 148 140 139 134 132 135 128 126 129 129 127 121 110 69 53 27 314 298 297 334 344 344 348 339 337 331 323 316 319 318
235 233 243 233 228 202 186 170 170 190 182 159 160 160 162 172 174 176 180 184 195 194 188 185 181 176 177 174 173 173 173 173 178 177 171 166 168 163 150 148 144 140 139 134 137 135 133 132 138 142 141 141 144 155 157 151 145 142 138 137 140 135 135 142 141 135 133 119 79 33 6 342 339 335 342 343 346 348 343 336 330 322 320 321 323
329 300 237 239 182 121 129 176 194 192 152 157 155 161 171 174 177 172 185 200 203 193 168 158 159 161 162 168 174 174 175 176 175 166 162 162 146 142 154 146 134 132 134 136 135 140 142 142 143 144 146 147 148 154 159 156 150 148 148 146 150 145 146 147 150 146 137 136 147 216 297 328 346 342 346 346 349 351 346 334 331 324 322 321 327
317 297 314 182 174 169 173 188 161 138 147 150 153 156 174 174 169 179 205 198 154 142 152 156 149 155 162 167 166 173 168 164 157 152 138 132 145 149 144 141 137 132 132 136 141 141 137 135 138 139 139 155 162 154 163 162 157 154 155 153 157 154 145 146 143 144 149 154 172 177 248 311 343 345 346 350 355 353 348 346 333 324 324 321 327
301 323 103 124 125 105 95 83 121 143 147 153 153 164 169 169 174 201 195 147 147 150 146 148 154 157 158 157 156 147 146 145 135 136 142 143 136 139 146 144 143 146 146 144 144 142 141 134 130 138 147 158 171 174 159 165 163 160 158 159 157 155 158 146 139 145 153 159 164 182 202 328 342 343 355 358 360 357 354 357 333 330 328 332 333
10 30 19 111 109 96 89 107 128 138 148 155 156 161 169 169 195 197 154 150 146 146 149 152 153 156 160 159 157 155 154 150 151 153 151 153 153 152 153 150 148 147 146 146 150 150 146 144 139 145 152 161 168 169 166 165 168 165 163 163 155 156 152 142 144 149 159 161 164 180 211 328 354 359 6 8 8 6 8 346 340 340 340 343 343
34 42 0 99 101 97 95 73 102 133 148 158 161 163 169 182 201 151 145 139 145 149 148 151 157 158 155 158 159 158 155 156 155 153 153 153 157 156 153 158 158 153 153 153 159 157 153 157 156 153 162 167 171 182 173 172 171 169 167 161 164 161 152 150 148 148 153 162 165 171 178 72 47 27 24 28 24 18 4 353 353 351 355 352 338
41 17 12 66 113 120 99 70 48 93 118 153 164 159 167 187 172 138 143 145 141 142 146 151 154 155 156 152 149 156 158 158 160 158 158 161 159 161 161 171 165 167 166 163 164 165 164 159 158 165 164 169 173 176 180 180 177 174 167 168 168 161 157 154 146 154 154 169 171 159 133 102 76 49 43 42 32 19 6 5 360 3 0 340 340
49 42 34 70 84 83 88 85 48 37 65 88 93 135 165 175 131 138 136 137 139 140 146 147 143 147 150 147 147 146 150 158 161 171 171 169 167 171 170 166 171 171 170 167 165 170 171 169 177 167 167 166 168 175 181 186 184 172 171 175 168 163 157 153 150 159 173 162 150 147 126 95 75 58 51 39 38 13 11 9 7 2 345 349 352
62 353 24 81 92 88 88 89 69 12 46 75 87 70 115 129 139 131 130 131 136 138 136 140 148 143 140 153 155 159 158 155 165 160 155 162 163 173 166 168 177 173 175 174 172 176 175 176 181 182 172 162 171 179 182 186 181 172 176 173 168 161 159 153 145 157 145 127 135 134 115 100 88 80 71 52 43 20 13 7 357 352 349 356 2
76 32 75 83 85 106 108 97 79 14 23 66 73 74 107 118 122 127 128 128 136 148 150 152 145 142 149 159 158 153 158 162 172 170 168 168 178 183 181 184 183 182 178 184 180 183 184 184 184 175 155 168 184 188 192 189 183 174 173 168 163 164 166 160 159 152 135 129 122 109 90 75 69 52 52 1 342 29 26 20 1 348 354 1 357
52 28 53 81 105 96 95 94 66 354 34 63 62 55 75 117 130 136 139 135 137 130 126 129 134 136 145 152 155 162 169 165 165 177 185 185 183 189 195 208 238 241 216 192 185 191 194 190 178 166 163 177 184 198 210 192 175 177 170 163 170 176 169 164 170 144 115 102 104 102 102 89 100 137 179 35 17 37 47 39 2 331 12 1 357
52 63 66 66 60 91 94 86 42 8 44 66 58 48 47 75 116 138 139 134 135 131 131 141 146 152 152 159 160 161 162 162 169 174 170 151 145 185 205 204 211 221 200 343 216 210 199 179 181 191 184 179 192 208 179 176 180 177 175 169 168 168 168 164 168 153 136 129 132 126 140 135 130 152 140 92 45 19 2 19 15 8 2 355 351
49 71 55 68 71 86 94 81 43 33 56 58 58 33 42 38 89 132 137 139 140 139 143 145 153 165 165 164 158 161 168 163 168 171 175 176 156 144 148 168 190 212 210 221 211 191 179 194 194 182 201 283 92 158 171 177 177 175 171 170 170 173 168 168 157 133 111 146 147 153 161 153 143 145 161 165 164 104 2 358 347 351 339 340 336